Location: São Paulo
(23.5507°S, 46.6334°W)
Time: 20:45:35
(UTC-03:00)

Injun/Solrad 3 - Visible Passes

Search period start: 16 February 2026 00:00
Search period end: 26 February 2026 00:00
Orbit: 873 x 983 km, 66.8° (Epoch: 16 February)

Date Brightness Start Highest point End Pass type
(mag) Time Alt. Az. Time Alt. Az. Time Alt. Az.
23 Feb 10.3 21:57:05 14° S 21:57:05 14° S 21:57:53 10° S visible
24 Feb10.220:22:25SE20:22:25SE20:09:48Nvisible
24 Feb 10.1 22:05:51 20° SSW 22:05:51 20° SSW 22:08:21 10° S visible
25 Feb 8.0 20:21:10 10° N 20:27:25 56° ENE 20:33:41 10° SSE visible
25 Feb 10.3 22:09:58 10° W 22:14:09 18° WSW 22:18:20 10° SSW visible
